TimeCDT,TemperatureF,Dew PointF,Humidity,Sea Level PressureIn,VisibilityMPH,Wind Direction,Wind SpeedMPH,Gust SpeedMPH,PrecipitationIn,Events,Conditions,WindDirDegrees,DateUTC
12:15 AM,55.4,44.6,67,29.79,10.0,SSE,5.8,-,N/A,,Clear,150,2011-10-12 05:15:00
12:35 AM,53.6,46.4,77,29.78,10.0,SE,4.6,-,N/A,,Clear,140,2011-10-12 05:35:00
12:55 AM,53.6,44.6,72,29.78,10.0,SE,5.8,-,N/A,,Clear,130,2011-10-12 05:55:00
1:15 AM,53.6,44.6,72,29.78,10.0,SSE,3.5,-,N/A,,Clear,150,2011-10-12 06:15:00
1:35 AM,51.8,44.6,76,29.78,10.0,SE,3.5,-,N/A,,Clear,140,2011-10-12 06:35:00
1:55 AM,50.0,44.6,82,29.78,10.0,Calm,Calm,-,N/A,,Clear,0,2011-10-12 06:55:00
2:15 AM,48.2,42.8,82,29.78,10.0,SE,3.5,-,N/A,,Clear,130,2011-10-12 07:15:00
2:35 AM,48.2,42.8,82,29.77,10.0,SE,3.5,-,N/A,,Clear,140,2011-10-12 07:35:00
2:55 AM,50.0,44.6,82,29.76,10.0,SSE,4.6,-,N/A,,Scattered Clouds,160,2011-10-12 07:55:00
3:15 AM,50.0,44.6,82,29.76,10.0,SSE,3.5,-,N/A,,Scattered Clouds,160,2011-10-12 08:15:00
3:35 AM,48.2,44.6,87,29.76,10.0,SSE,3.5,-,N/A,,Mostly Cloudy,160,2011-10-12 08:35:00
3:55 AM,50.0,44.6,82,29.75,10.0,SE,4.6,-,N/A,,Scattered Clouds,140,2011-10-12 08:55:00
4:15 AM,51.8,46.4,82,29.75,10.0,SSE,5.8,-,N/A,,Clear,150,2011-10-12 09:15:00
4:35 AM,51.8,44.6,76,29.76,10.0,SSE,5.8,-,N/A,,Partly Cloudy,150,2011-10-12 09:35:00
4:55 AM,51.8,46.4,82,29.76,10.0,SSE,5.8,-,N/A,,Mostly Cloudy,160,2011-10-12 09:55:00
5:15 AM,51.8,46.4,82,29.76,10.0,SSE,5.8,-,N/A,,Overcast,160,2011-10-12 10:15:00
5:35 AM,53.6,46.4,77,29.76,10.0,SSE,5.8,-,N/A,,Overcast,160,2011-10-12 10:35:00
5:55 AM,53.6,48.2,82,29.76,10.0,SSE,6.9,-,N/A,,Overcast,160,2011-10-12 10:55:00
6:15 AM,53.6,48.2,82,29.76,9.0,SSE,6.9,-,N/A,,Overcast,160,2011-10-12 11:15:00
6:35 AM,53.6,48.2,82,29.76,10.0,SSE,5.8,-,N/A,,Mostly Cloudy,160,2011-10-12 11:35:00
6:55 AM,53.6,48.2,82,29.76,9.0,SSE,5.8,-,N/A,,Mostly Cloudy,150,2011-10-12 11:55:00
7:15 AM,53.6,48.2,82,29.75,8.0,SSE,4.6,-,0.01,,Overcast,160,2011-10-12 12:15:00
7:35 AM,53.6,50.0,88,29.75,5.0,South,3.5,-,0.03,,Overcast,190,2011-10-12 12:35:00
7:55 AM,53.6,51.8,94,29.74,5.0,SE,5.8,-,0.03,,Overcast,130,2011-10-12 12:55:00
8:15 AM,53.6,51.8,94,29.74,7.0,SE,6.9,-,N/A,,Overcast,140,2011-10-12 13:15:00
8:35 AM,55.4,51.8,88,29.74,9.0,ESE,8.1,-,N/A,,Overcast,120,2011-10-12 13:35:00
8:55 AM,55.4,51.8,88,29.73,9.0,SE,9.2,-,N/A,,Overcast,130,2011-10-12 13:55:00
9:15 AM,55.4,51.8,88,29.73,10.0,SE,9.2,16.1,N/A,,Overcast,140,2011-10-12 14:15:00
9:35 AM,55.4,51.8,88,29.73,10.0,SE,9.2,-,N/A,,Overcast,140,2011-10-12 14:35:00
9:55 AM,55.4,51.8,88,29.73,10.0,SE,9.2,-,N/A,,Overcast,140,2011-10-12 14:55:00
10:15 AM,57.2,51.8,82,29.72,10.0,SE,11.5,-,N/A,,Mostly Cloudy,140,2011-10-12 15:15:00
10:35 AM,57.2,51.8,82,29.73,10.0,SSE,9.2,-,N/A,,Mostly Cloudy,150,2011-10-12 15:35:00
10:55 AM,57.2,53.6,88,29.74,10.0,SSE,11.5,-,N/A,,Mostly Cloudy,160,2011-10-12 15:55:00
11:15 AM,57.2,53.6,88,29.73,10.0,SSE,9.2,-,N/A,,Overcast,150,2011-10-12 16:15:00
11:35 AM,59.0,53.6,82,29.73,10.0,South,9.2,-,N/A,,Overcast,180,2011-10-12 16:35:00
11:55 AM,59.0,53.6,82,29.73,10.0,SSE,6.9,-,N/A,,Overcast,160,2011-10-12 16:55:00
12:15 PM,60.8,53.6,77,29.73,10.0,South,8.1,-,N/A,,Overcast,170,2011-10-12 17:15:00
12:35 PM,60.8,55.4,82,29.73,10.0,SSE,8.1,-,N/A,,Overcast,150,2011-10-12 17:35:00
12:55 PM,60.8,53.6,77,29.72,10.0,South,10.4,-,N/A,,Overcast,170,2011-10-12 17:55:00
1:15 PM,60.8,53.6,77,29.72,10.0,SSE,10.4,-,N/A,,Overcast,160,2011-10-12 18:15:00
1:35 PM,60.8,53.6,77,29.71,10.0,South,9.2,-,N/A,,Overcast,170,2011-10-12 18:35:00
2:15 PM,60.8,53.6,77,29.68,10.0,Calm,Calm,-,N/A,,Overcast,0,2011-10-12 19:15:00
2:35 PM,60.8,53.6,77,29.70,10.0,SSE,6.9,-,N/A,,Mostly Cloudy,150,2011-10-12 19:35:00
2:55 PM,60.8,53.6,77,29.70,10.0,SSE,10.4,-,N/A,,Overcast,150,2011-10-12 19:55:00
3:15 PM,60.8,53.6,77,29.69,10.0,SSE,5.8,-,N/A,,Overcast,150,2011-10-12 20:15:00
3:35 PM,60.8,53.6,77,29.69,8.0,SSE,6.9,-,N/A,,Overcast,150,2011-10-12 20:35:00
3:55 PM,60.8,53.6,77,29.69,10.0,South,8.1,-,N/A,,Overcast,180,2011-10-12 20:55:00
4:15 PM,59.0,53.6,82,29.69,10.0,South,5.8,-,N/A,,Overcast,190,2011-10-12 21:15:00
4:35 PM,59.0,53.6,82,29.69,10.0,SSW,8.1,-,N/A,,Overcast,210,2011-10-12 21:35:00
4:55 PM,59.0,53.6,82,29.70,8.0,South,8.1,-,0.01,,Overcast,170,2011-10-12 21:55:00
5:15 PM,57.2,53.6,88,29.71,6.0,South,5.8,-,0.06,,Overcast,170,2011-10-12 22:15:00
5:35 PM,57.2,53.6,88,29.71,8.0,South,9.2,-,0.10,,Overcast,180,2011-10-12 22:35:00
5:55 PM,57.2,53.6,88,29.72,8.0,South,8.1,-,0.12,,Overcast,170,2011-10-12 22:55:00
6:15 PM,57.2,51.8,82,29.71,10.0,SW,5.8,-,0.01,,Overcast,220,2011-10-12 23:15:00
6:35 PM,55.4,51.8,88,29.70,10.0,West,4.6,-,0.02,,Overcast,270,2011-10-12 23:35:00
6:55 PM,55.4,51.8,88,29.70,10.0,South,6.9,-,0.02,,Overcast,170,2011-10-12 23:55:00
7:15 PM,55.4,51.8,88,29.69,10.0,South,3.5,-,N/A,,Overcast,190,2011-10-13 00:15:00
7:35 PM,55.4,51.8,88,29.69,10.0,SSW,3.5,-,N/A,,Overcast,210,2011-10-13 00:35:00
7:55 PM,55.4,51.8,88,29.68,10.0,WSW,4.6,-,N/A,,Overcast,250,2011-10-13 00:55:00
8:15 PM,55.4,51.8,88,29.67,10.0,West,3.5,-,N/A,,Overcast,270,2011-10-13 01:15:00
8:35 PM,55.4,51.8,88,29.68,10.0,SSW,3.5,-,N/A,,Overcast,200,2011-10-13 01:35:00
8:55 PM,55.4,51.8,88,29.68,10.0,SSE,4.6,-,N/A,,Overcast,160,2011-10-13 01:55:00
9:15 PM,55.4,51.8,88,29.68,10.0,South,4.6,-,N/A,,Overcast,170,2011-10-13 02:15:00
9:35 PM,55.4,51.8,88,29.67,10.0,South,4.6,-,N/A,,Overcast,170,2011-10-13 02:35:00
9:55 PM,55.4,51.8,88,29.67,7.0,ESE,3.5,-,N/A,,Overcast,120,2011-10-13 02:55:00
10:15 PM,55.4,51.8,88,29.67,5.0,ESE,3.5,-,N/A,,Overcast,110,2011-10-13 03:15:00
10:35 PM,55.4,51.8,88,29.67,7.0,SE,4.6,-,N/A,,Overcast,130,2011-10-13 03:35:00
10:55 PM,53.6,51.8,94,29.66,8.0,SE,5.8,-,N/A,,Overcast,140,2011-10-13 03:55:00
11:15 PM,53.6,51.8,94,29.66,10.0,SE,6.9,-,N/A,,Overcast,140,2011-10-13 04:15:00
11:35 PM,53.6,51.8,94,29.66,5.0,SE,8.1,-,0.03,,Overcast,130,2011-10-13 04:35:00
11:55 PM,53.6,51.8,94,29.65,9.0,ESE,4.6,-,0.08,,Overcast,110,2011-10-13 04:55:00